Portada
METAR-TAF:

METAR-TAF

Aeroports :

Jinotega, Nicaragua

latitud: 13-05N, longitud: 085-59W, altitud: 985 m

Observació

L'informe es va fer fa 27 minuts, a les 18:00 UTC
Vent 6 kt del Nord
Temperatura 25°C
Humitat 65%
Pressió 1013 hPa
Visibilitat 10 km o més
Núvols disperses a una alçada de 2000 ft

METAR: MNJG 221800Z 36006KT 9999 SCT020 25/18 Q1013

Hora: 12:27 (18:27 UTC)


TAF: manca

Observacions i pronòstics meteorològics de més de 4000 aeroports (METAR i TAF).

Les estacions disponibles són els punts grocs i vermells al mapa.

Posi el ratolí al punt desitjat per veure el nom de l'estació.

Feu clic per veure les observacions i els pronòstics meteorològics.

Per canviar el mapa: feu clic els botons verds amb una creu de color negre per apropar; al botó verd amb un guió per allunyar la imatge; o en les fletxes verdes per a mapes adjacents.


METAR-TAF: